Oudste pagina's

Uit WaaaghPedia

Hieronder worden maximaal 363 resultaten weergegeven in het bereik #1 tot #363.

(vorige 500 | volgende 500) (20 | 50 | 100 | 250 | 500) bekijken.

  1. Speciaal:Categorieën‏‎ (26 apr 2018 22:32)
  2. Cura/Instellingen‏‎ (28 apr 2018 11:35)
  3. GMX.com‏‎ (21 mei 2018 12:37)
  4. Ffmpeg‏‎ (20 jun 2018 19:30)
  5. PFSense/PFBlockerNG‏‎ (27 sep 2018 23:15)
  6. PFSense/PFBlockerNG/DNSBL‏‎ (27 sep 2018 23:19)
  7. PFSense/Captive Portal‏‎ (27 sep 2018 23:47)
  8. PFSense/Ping‏‎ (11 okt 2018 17:56)
  9. Code Snippers/PHP/Kentekenplaat NL‏‎ (14 okt 2018 10:15)
  10. Domoticz/Pi Install‏‎ (5 nov 2018 19:39)
  11. Domoticz/RaZberry Z-Wave Controller‏‎ (5 nov 2018 19:53)
  12. Domoticz/P1‏‎ (5 nov 2018 19:56)
  13. PFSense/Firewall‏‎ (16 nov 2018 20:21)
  14. Dell/iDrac6/Install SSL‏‎ (22 nov 2018 17:27)
  15. TimeServer‏‎ (23 nov 2018 17:51)
  16. Arduino/WiFiManager‏‎ (29 nov 2018 17:14)
  17. Arduino/WS2812FX‏‎ (29 nov 2018 19:03)
  18. PFSense/Nintendo Switch‏‎ (8 dec 2018 20:47)
  19. PFSense/OpenVPN/Site2Site‏‎ (15 dec 2018 14:12)
  20. Trucker Info/Restaurants‏‎ (20 dec 2018 17:40)
  21. PFSense/PPPoE‏‎ (22 dec 2018 13:24)
  22. PFSense/Bufferbloat‏‎ (22 dec 2018 13:45)
  23. PFSense/Gast Netwerk‏‎ (30 dec 2018 15:20)
  24. Arduino‏‎ (30 dec 2018 18:47)
  25. Code Snippers‏‎ (30 dec 2018 18:49)
  26. Trucker Info‏‎ (30 dec 2018 18:53)
  27. Zabbix/Monitor‏‎ (30 dec 2018 19:21)
  28. Zabbix/Server‏‎ (30 dec 2018 19:43)
  29. Zabbix/Monitor/VMware ESXi‏‎ (30 dec 2018 19:59)
  30. WHM en cPanel/ImageMagick‏‎ (31 dec 2018 14:48)
  31. VMware/ESXi/Fixes‏‎ (31 dec 2018 15:18)
  32. WHM en cPanel/Clean Up‏‎ (31 dec 2018 15:20)
  33. WHM en cPanel/Wildcard Domain‏‎ (31 dec 2018 15:20)
  34. PFSense/OpenVPN‏‎ (31 dec 2018 15:33)
  35. CloneZilla/Backup‏‎ (31 dec 2018 15:36)
  36. Code Snippers/PHP‏‎ (31 dec 2018 15:39)
  37. PFSense/UPnP‏‎ (31 dec 2018 15:39)
  38. Certificaatautoriteit‏‎ (31 dec 2018 15:40)
  39. VMware/ESXi/SSL Cert‏‎ (31 dec 2018 15:40)
  40. Cura/Temperature Tower‏‎ (31 dec 2018 15:41)
  41. Arduino/Importeer ZIP Library‏‎ (31 dec 2018 15:41)
  42. Tijdzone Instellen‏‎ (31 dec 2018 15:43)
  43. FreeNAS/Errors‏‎ (31 dec 2018 15:44)
  44. FreeNAS/Schrijf rechten van plugins‏‎ (31 dec 2018 15:46)
  45. VMware/ESXi/vCenter‏‎ (31 dec 2018 16:05)
  46. VMware/ESXi/vCenter/Images‏‎ (31 dec 2018 16:06)
  47. VMware/ESXi/vCenter/Installeer‏‎ (31 dec 2018 16:07)
  48. VMware/ESXi/vCenter/Updaten‏‎ (31 dec 2018 16:07)
  49. VMware/ESXi/Insufficient resources to satisfy configured failover level for HA‏‎ (31 dec 2018 16:08)
  50. VMware/ESXi/Removing Inaccessible VM‏‎ (31 dec 2018 16:08)
  51. UniFi/Controller/Updaten‏‎ (31 dec 2018 16:41)
  52. UniFi/Controller/Tweaks‏‎ (31 dec 2018 16:41)
  53. UniFi/Controller/Poorten‏‎ (31 dec 2018 16:41)
  54. UniFi‏‎ (31 dec 2018 16:42)
  55. MediaWiki/Short URL‏‎ (31 dec 2018 18:44)
  56. MediaWiki/Thumbs laden niet‏‎ (31 dec 2018 18:45)
  57. Dell/iDrac6/Power‏‎ (1 jan 2019 22:10)
  58. Arduino/FastLED‏‎ (2 jan 2019 10:55)
  59. Domoticz/API‏‎ (4 jan 2019 19:42)
  60. Zabbix/Tweaks‏‎ (5 jan 2019 17:21)
  61. PFSense/PortForwarding‏‎ (9 jan 2019 19:50)
  62. Raspberry Pi/Wifi‏‎ (10 jan 2019 18:50)
  63. Kerbal Space Program/Vliegtuig‏‎ (10 jan 2019 20:09)
  64. Tools/Webbased‏‎ (12 jan 2019 15:22)
  65. 8BitDo/Controller instellen‏‎ (13 jan 2019 11:50)
  66. 8BitDo‏‎ (13 jan 2019 11:50)
  67. Domoticz/SSL‏‎ (13 jan 2019 18:30)
  68. Code Snippers/Linux‏‎ (15 jan 2019 15:06)
  69. Arduino/IDE/Darkmode‏‎ (15 jan 2019 17:49)
  70. MQTT‏‎ (15 jan 2019 19:56)
  71. Arduino/IDE/instellen voor Wemos D1 mini‏‎ (15 jan 2019 20:09)
  72. Arduino/MQTT‏‎ (25 jan 2019 18:18)
  73. Arduino/MQTT/Fixes‏‎ (25 jan 2019 18:20)
  74. Cura/Infill‏‎ (29 jan 2019 05:46)
  75. UniFi/Controller/Windows Firewall‏‎ (11 feb 2019 17:17)
  76. Duiken/Checklist‏‎ (16 feb 2019 19:45)
  77. Duiken/Scholen‏‎ (16 feb 2019 22:11)
  78. TomTomMaps‏‎ (20 feb 2019 19:32)
  79. VMware/VMware Tools‏‎ (21 feb 2019 13:37)
  80. ConfigServer Security & Firewall (csf)/csf.pignore‏‎ (23 feb 2019 11:02)
  81. ConfigServer Security & Firewall (csf)/Fix‏‎ (23 feb 2019 11:15)
  82. ConfigServer Security & Firewall (csf)/Commands‏‎ (23 feb 2019 11:16)
  83. ConfigServer Security & Firewall (csf)/Cluster‏‎ (23 feb 2019 11:16)
  84. MediaWiki/Subpagina's‏‎ (23 feb 2019 11:33)
  85. MediaWiki/Tabel Generator‏‎ (23 feb 2019 11:40)
  86. Duiken/Weetjes‏‎ (3 mrt 2019 18:09)
  87. Webhosting/Tests‏‎ (8 mrt 2019 09:35)
  88. Trucker Info/Container Maten‏‎ (22 mrt 2019 18:35)
  89. FreeNAS/Tweaks‏‎ (30 mrt 2019 13:04)
  90. WHM en cPanel/Backup‏‎ (21 apr 2019 18:39)
  91. Trucker Info/Tunnels‏‎ (30 apr 2019 19:13)
  92. Trucker Info/ADR‏‎ (30 apr 2019 19:13)
  93. Duiken/Scholing‏‎ (12 mei 2019 17:03)
  94. Duiken/Winkels‏‎ (12 mei 2019 17:20)
  95. Duiken/Tips‏‎ (12 mei 2019 17:24)
  96. FreeNAS/Plugins/NextCloud‏‎ (10 jun 2019 17:36)
  97. NFS‏‎ (19 jun 2019 20:19)
  98. GoPro‏‎ (23 jun 2019 15:17)
  99. Parrot OS‏‎ (29 jun 2019 18:25)
  100. Raspberry Pi/SSH‏‎ (29 jun 2019 19:22)
  101. Raspberry Pi/Setup‏‎ (29 jun 2019 19:23)
  102. Raspberry Pi/Update‏‎ (29 jun 2019 19:24)
  103. Raspberry Pi/Wifi Bridge‏‎ (29 jun 2019 20:43)
  104. XCP-NG/Verwijder laatste server van pool‏‎ (6 jul 2019 12:35)
  105. XCP-NG/Docker‏‎ (6 jul 2019 12:38)
  106. PFSense/Active Directory Intergratie‏‎ (20 jul 2019 11:35)
  107. Duiken/Paklijst‏‎ (3 aug 2019 16:41)
  108. Auto's/Suzuki Swift‏‎ (3 aug 2019 17:35)
  109. Duiken/Links‏‎ (3 aug 2019 17:39)
  110. FreeFileSync‏‎ (3 aug 2019 18:03)
  111. Samba‏‎ (11 aug 2019 12:15)
  112. MySQL/UUID‏‎ (18 aug 2019 12:59)
  113. Kerbal Space Program/Rendezvouz‏‎ (31 aug 2019 21:30)
  114. FreeNAS/Vind defecte schijf‏‎ (3 sep 2019 18:06)
  115. CentOS 7/VM vergroot schijf‏‎ (9 sep 2019 11:01)
  116. Pentest‏‎ (9 sep 2019 13:12)
  117. PFSense/HAProxy‏‎ (9 sep 2019 15:56)
  118. MediaWiki/Spam List‏‎ (10 sep 2019 02:19)
  119. Kopieer CD/DVD naar Hardeschijf‏‎ (11 sep 2019 14:08)
  120. PFSense/Transparent Firewall‏‎ (13 sep 2019 13:47)
  121. Foreman‏‎ (13 sep 2019 16:04)
  122. PFSense/WAN Management‏‎ (16 sep 2019 14:44)
  123. Microsoft/Windows‏‎ (19 sep 2019 10:06)
  124. Microsoft/Windows/10‏‎ (19 sep 2019 10:07)
  125. Microsoft/Windows/10/HEVC H.265 Codec‏‎ (19 sep 2019 10:08)
  126. Microsoft/Windows/10/Verborgen Administrator‏‎ (19 sep 2019 10:09)
  127. Microsoft/Windows/Tutorials‏‎ (19 sep 2019 10:14)
  128. Dell‏‎ (19 sep 2019 10:37)
  129. Microsoft‏‎ (19 sep 2019 10:37)
  130. Google‏‎ (19 sep 2019 10:37)
  131. VMware‏‎ (19 sep 2019 10:37)
  132. AudaCity‏‎ (19 sep 2019 10:53)
  133. AutoFS‏‎ (19 sep 2019 10:59)
  134. BalenaEtcher‏‎ (19 sep 2019 11:00)
  135. Bazarr‏‎ (19 sep 2019 11:01)
  136. Cockpit‏‎ (19 sep 2019 11:03)
  137. ConfigServer Security & Firewall (csf)‏‎ (19 sep 2019 11:03)
  138. Cura‏‎ (19 sep 2019 11:03)
  139. DaVinci Resolve‏‎ (19 sep 2019 11:04)
  140. Docker‏‎ (19 sep 2019 11:04)
  141. Exim‏‎ (19 sep 2019 11:05)
  142. Gimp‏‎ (19 sep 2019 11:05)
  143. NetSetMan‏‎ (19 sep 2019 11:06)
  144. MakeMKV‏‎ (19 sep 2019 11:10)
  145. Kerbal Space Program‏‎ (19 sep 2019 11:11)
  146. Image Resizer for Windows‏‎ (19 sep 2019 11:12)
  147. Java‏‎ (19 sep 2019 11:12)
  148. Htop‏‎ (19 sep 2019 11:12)
  149. Host File Editor‏‎ (19 sep 2019 11:12)
  150. Guacamole‏‎ (19 sep 2019 11:13)
  151. GoAccess‏‎ (19 sep 2019 11:13)
  152. Proxmox‏‎ (19 sep 2019 11:14)
  153. RackTables‏‎ (19 sep 2019 11:15)
  154. Rufus‏‎ (19 sep 2019 11:16)
  155. VMware/ESXi‏‎ (19 sep 2019 11:18)
  156. WHM en cPanel‏‎ (19 sep 2019 11:19)
  157. Webmin‏‎ (19 sep 2019 11:20)
  158. Website Ripper‏‎ (19 sep 2019 11:21)
  159. Wireshark‏‎ (19 sep 2019 11:21)
  160. WordPress‏‎ (19 sep 2019 11:21)
  161. Youtube-dl‏‎ (19 sep 2019 11:22)
  162. Zabbix‏‎ (19 sep 2019 11:23)
  163. NextCloud‏‎ (19 sep 2019 11:36)
  164. Rclone‏‎ (19 sep 2019 11:38)
  165. Rsync‏‎ (19 sep 2019 11:38)
  166. MediaWiki‏‎ (19 sep 2019 11:42)
  167. Pokémon: Let's Go‏‎ (19 sep 2019 11:49)
  168. Plop Boot Manager‏‎ (19 sep 2019 12:11)
  169. CloneZilla‏‎ (19 sep 2019 12:11)
  170. Raspberry Pi‏‎ (19 sep 2019 12:13)
  171. Kerbal Space Program/Screen Message Spam‏‎ (26 sep 2019 10:38)
  172. WHM en cPanel/Tweaks‏‎ (28 sep 2019 23:17)
  173. UniFi/Controller‏‎ (29 sep 2019 18:08)
  174. Windows 10 Disk Mirror‏‎ (2 okt 2019 14:17)
  175. UDP‏‎ (2 okt 2019 15:41)
  176. Domain Name System‏‎ (2 okt 2019 16:01)
  177. Windows NSLookup‏‎ (2 okt 2019 16:03)
  178. TCP IP‏‎ (2 okt 2019 16:06)
  179. Linux Comando's‏‎ (2 okt 2019 16:17)
  180. Linux Updaten‏‎ (2 okt 2019 16:18)
  181. Linux Fixes‏‎ (2 okt 2019 16:19)
  182. Crontab‏‎ (2 okt 2019 16:19)
  183. Automatisch inloggen‏‎ (2 okt 2019 16:36)
  184. Microsoft/Windows/10/Shortcuts‏‎ (7 okt 2019 19:48)
  185. Windows Installatie Antwoord Bestand‏‎ (18 okt 2019 09:48)
  186. G-code‏‎ (18 okt 2019 10:03)
  187. Toleranties‏‎ (18 okt 2019 10:04)
  188. Windows System Preparation‏‎ (18 okt 2019 10:11)
  189. Active Directory Vuilnisbak‏‎ (18 okt 2019 10:13)
  190. Zabbix/Templates‏‎ (22 okt 2019 19:26)
  191. Zabbix/Installatie‏‎ (23 okt 2019 17:37)
  192. Linux USB RS232‏‎ (24 okt 2019 10:25)
  193. SSH (Secure Shell)‏‎ (24 okt 2019 21:37)
  194. FTP (File Transfer Protocol)‏‎ (24 okt 2019 21:38)
  195. SMTP (Simple Mail Transfer Protocol)‏‎ (24 okt 2019 21:39)
  196. POP3 (Post Office Protocol v3)‏‎ (24 okt 2019 21:40)
  197. IMAP (Internet Message Access Protocol)‏‎ (24 okt 2019 21:40)
  198. TCP‏‎ (24 okt 2019 21:41)
  199. RDP (Remote Desktop Protocol)‏‎ (24 okt 2019 21:43)
  200. HTTPS (HyperText Transfer Protocol Secure)‏‎ (24 okt 2019 21:44)
  201. HTTP (Hypertext Transfer Protocol)‏‎ (24 okt 2019 21:44)
  202. Microsoft/Windows/Error: Could Not Reconnect All Network Drives‏‎ (25 okt 2019 18:59)
  203. Windows Server Installeren‏‎ (25 okt 2019 20:06)
  204. Putty‏‎ (28 okt 2019 14:54)
  205. UniFi/Controller/Apparaat Koppelen‏‎ (2 nov 2019 11:06)
  206. Microsoft/Windows/Mass Deploy‏‎ (2 nov 2019 11:46)
  207. Grafischekaart Drivers Verwijderen‏‎ (2 nov 2019 11:53)
  208. XCP-NG/Performance Testing‏‎ (2 nov 2019 12:06)
  209. Fritzbox‏‎ (15 nov 2019 00:13)
  210. YUMI‏‎ (16 nov 2019 11:17)
  211. Raspberry Pi/RNDIS‏‎ (23 nov 2019 14:53)
  212. Raspberry Pi/Bluetooth‏‎ (23 nov 2019 17:52)
  213. XCP-NG/Schijf Toevoegen‏‎ (1 dec 2019 16:56)
  214. Windows Server Evaluation naar Retail‏‎ (8 dec 2019 16:16)
  215. Pwnagotchi‏‎ (22 dec 2019 19:03)
  216. RancherOS‏‎ (25 dec 2019 14:54)
  217. Window Server Administrator Naam aanpassen‏‎ (27 dec 2019 15:07)
  218. Window Server ICMP Toestaan‏‎ (27 dec 2019 15:12)
  219. Active Directory‏‎ (27 dec 2019 17:41)
  220. Zabbix/Agent‏‎ (28 dec 2019 12:23)
  221. Mono‏‎ (28 dec 2019 13:06)
  222. Radarr‏‎ (28 dec 2019 13:13)
  223. Lidarr‏‎ (28 dec 2019 13:14)
  224. CheatSheets‏‎ (31 dec 2019 15:38)
  225. Lego‏‎ (31 dec 2019 15:54)
  226. Domeinnaam Tools‏‎ (31 dec 2019 15:58)
  227. Cachet‏‎ (31 dec 2019 16:16)
  228. Organizr‏‎ (31 dec 2019 16:18)
  229. Selfhosted‏‎ (31 dec 2019 17:43)
  230. SABnzbd‏‎ (31 dec 2019 17:44)
  231. Etcher‏‎ (2 jan 2020 12:17)
  232. Easy 2 Boot‏‎ (2 jan 2020 12:21)
  233. Darik's Boot and Nuke‏‎ (2 jan 2020 12:44)
  234. Microsoft Certificate Authority‏‎ (9 jan 2020 18:53)
  235. PID Tuning‏‎ (25 jan 2020 16:47)
  236. XCP-NG‏‎ (1 feb 2020 12:38)
  237. Windows Search Uitschakelen‏‎ (5 feb 2020 18:02)
  238. Passthrough SATA in VMware ESXi‏‎ (7 mrt 2020 15:35)
  239. CentOS 8 Maak nieuwe SUDO User‏‎ (7 mrt 2020 16:30)
  240. CentOS 8‏‎ (7 mrt 2020 16:33)
  241. CentOS 7/Installeren‏‎ (7 mrt 2020 16:35)
  242. CentOS 7/Updaten‏‎ (7 mrt 2020 16:35)
  243. CentOS 7‏‎ (7 mrt 2020 16:35)
  244. CentOS 7/Firewall‏‎ (7 mrt 2020 16:36)
  245. CentOS 7/Hostname‏‎ (7 mrt 2020 16:36)
  246. Fritz!Box‏‎ (8 mrt 2020 20:15)
  247. MSI‏‎ (8 mrt 2020 20:16)
  248. Blocklists‏‎ (8 mrt 2020 20:21)
  249. LuBan‏‎ (8 mrt 2020 20:29)
  250. 3D Printen Informatie Links‏‎ (8 mrt 2020 20:42)
  251. Immers‏‎ (8 mrt 2020 20:43)
  252. HackerSpace‏‎ (8 mrt 2020 20:47)
  253. Bosmolenplas‏‎ (9 mrt 2020 18:24)
  254. De Baars‏‎ (9 mrt 2020 23:26)
  255. Groene Heuvels‏‎ (9 mrt 2020 23:29)
  256. Dreisschor Gemaal‏‎ (9 mrt 2020 23:32)
  257. Dreischor Loswal‏‎ (10 mrt 2020 21:00)
  258. Den Osse Nieuwe Kerkweg‏‎ (10 mrt 2020 21:02)
  259. Dreischor Frans Kokrif‏‎ (10 mrt 2020 21:04)
  260. Den Osse Haven‏‎ (10 mrt 2020 21:06)
  261. Katshoek‏‎ (10 mrt 2020 21:08)
  262. Putti's Place‏‎ (10 mrt 2020 21:09)
  263. Het Galjoen Zonder Poen‏‎ (10 mrt 2020 21:10)
  264. Willems Reef‏‎ (10 mrt 2020 21:11)
  265. De Kabbelaar‏‎ (10 mrt 2020 21:12)
  266. Bergse Diepsluis Oesterdam‏‎ (10 mrt 2020 21:13)
  267. Kleine Nol‏‎ (10 mrt 2020 21:14)
  268. Levensstrijd‏‎ (10 mrt 2020 21:15)
  269. De Stormvogel‏‎ (10 mrt 2020 21:15)
  270. Anna Jacobapolder‏‎ (10 mrt 2020 21:16)
  271. Plompe toren‏‎ (10 mrt 2020 21:17)
  272. Preekhil‏‎ (10 mrt 2020 21:17)
  273. Google Chrome‏‎ (15 mrt 2020 14:54)
  274. Google Chrome/Auto HTTPS‏‎ (15 mrt 2020 14:54)
  275. Google Chrome/Notificaties‏‎ (15 mrt 2020 14:54)
  276. OpenProject‏‎ (16 mrt 2020 16:09)
  277. Verander Hostname‏‎ (16 mrt 2020 17:07)
  278. CentOS 8/Updaten‏‎ (16 mrt 2020 17:14)
  279. CentOS 8/FineTune‏‎ (16 mrt 2020 17:22)
  280. XCP-NG/Guest-Tools‏‎ (16 mrt 2020 17:23)
  281. PFSense‏‎ (16 mrt 2020 20:05)
  282. XCP-NG/File System on Control Domain Full‏‎ (23 mrt 2020 20:54)
  283. De Beldert‏‎ (2 apr 2020 17:55)
  284. Project Vuilnisbak‏‎ (3 apr 2020 17:15)
  285. Zzztestpage‏‎ (5 apr 2020 09:09)
  286. Duiken‏‎ (5 apr 2020 09:32)
  287. Drukland‏‎ (5 apr 2020 09:58)
  288. CodeIgniter‏‎ (5 apr 2020 10:00)
  289. Domoticz‏‎ (5 apr 2020 10:03)
  290. Domotica‏‎ (5 apr 2020 10:04)
  291. Fibaro‏‎ (5 apr 2020 10:05)
  292. Apple Watch‏‎ (5 apr 2020 10:52)
  293. RoboCopy‏‎ (10 apr 2020 15:55)
  294. TuneMyMusic‏‎ (11 apr 2020 09:25)
  295. MultiMedia Download Server‏‎ (12 apr 2020 18:45)
  296. Zenders‏‎ (19 apr 2020 16:46)
  297. HPI Savage‏‎ (23 apr 2020 16:03)
  298. HPI Baja 5B SS‏‎ (23 apr 2020 16:05)
  299. HPI Baja 5T‏‎ (23 apr 2020 16:06)
  300. Tamiya TT-01‏‎ (23 apr 2020 16:07)
  301. Tamiya King Hauler‏‎ (23 apr 2020 16:07)
  302. Traxxas E-Revo VXL Brushless‏‎ (23 apr 2020 16:08)
  303. Traxxas TRX-4 Defender‏‎ (23 apr 2020 16:08)
  304. Creality 3D® CR-10‏‎ (26 apr 2020 12:49)
  305. OctoPrint‏‎ (26 apr 2020 13:00)
  306. Wemos D1 - Lolin D1‏‎ (26 apr 2020 13:32)
  307. Domain-notice.com‏‎ (5 mei 2020 12:47)
  308. Lipo Batterijen‏‎ (6 mei 2020 13:22)
  309. DJI Phantom 2‏‎ (6 mei 2020 13:25)
  310. Hoofdpagina‏‎ (9 jun 2020 06:51)
  311. Voorwaardelijke Opmaak‏‎ (9 jun 2020 06:53)
  312. SSH Keys‏‎ (29 jun 2020 10:09)
  313. Portainer‏‎ (24 aug 2020 06:56)
  314. Rancher‏‎ (29 aug 2020 23:00)
  315. Reset DHCP Leases‏‎ (9 sep 2020 18:11)
  316. Google Chrome/Bypass HTTPS warning‏‎ (17 sep 2020 10:23)
  317. CentOS 7/FineTune‏‎ (17 sep 2020 14:28)
  318. GitLab‏‎ (17 sep 2020 14:32)
  319. VMware/ESXi/Updates‏‎ (20 sep 2020 14:51)
  320. Laravel‏‎ (24 sep 2020 17:37)
  321. Docker op Synology‏‎ (28 sep 2020 18:12)
  322. Symfony‏‎ (30 sep 2020 12:40)
  323. Window Server Disable CTRL+ALT+DEL Login‏‎ (2 okt 2020 11:04)
  324. CSV to Array‏‎ (23 okt 2020 20:52)
  325. Connect to Active Directory‏‎ (23 okt 2020 20:53)
  326. Handtekening veld‏‎ (23 okt 2020 20:55)
  327. VMWare vSphere Info‏‎ (23 okt 2020 20:58)
  328. GrapesJS‏‎ (23 okt 2020 21:00)
  329. Trail periode verlengen‏‎ (23 okt 2020 21:06)
  330. ReCAPTCHA‏‎ (23 okt 2020 21:12)
  331. SSL Certificaten‏‎ (23 okt 2020 21:13)
  332. VMware/ESXi/HDD as SSD‏‎ (23 okt 2020 21:15)
  333. Microsoft/Windows/Sysprep‏‎ (23 okt 2020 21:18)
  334. PFSense/DHCP Leases verwijderen‏‎ (23 okt 2020 21:19)
  335. Bitwarden‏‎ (23 okt 2020 21:20)
  336. OCR‏‎ (23 okt 2020 21:21)
  337. SysAdmin Toolbox‏‎ (23 okt 2020 21:33)
  338. Sonarr‏‎ (23 okt 2020 21:52)
  339. Dell/iDrac6‏‎ (31 okt 2020 18:35)
  340. Plex‏‎ (8 nov 2020 19:21)
  341. TriNed‏‎ (3 dec 2020 21:55)
  342. IIS Reverse Proxy‏‎ (28 dec 2020 07:59)
  343. Openen Mogelijk Schadelijke software van nas‏‎ (28 dec 2020 08:00)
  344. Exchange 2016‏‎ (28 dec 2020 08:06)
  345. Group Policy (GPO)‏‎ (28 dec 2020 08:08)
  346. Random Links‏‎ (28 dec 2020 08:26)
  347. BlueScreenView‏‎ (28 dec 2020 08:29)
  348. VLC‏‎ (28 dec 2020 08:32)
  349. LosslessCut‏‎ (28 dec 2020 08:33)
  350. Home Assistant‏‎ (28 dec 2020 08:34)
  351. ASCIIQuarium‏‎ (28 dec 2020 08:36)
  352. Xen Orchestra‏‎ (28 dec 2020 08:40)
  353. Windows Deployment Services‏‎ (2 jan 2021 15:00)
  354. Gedeelde Mailbox Exchange‏‎ (15 jan 2021 11:43)
  355. Disk Analyzer‏‎ (23 jan 2021 17:36)
  356. Forseer HTTPS met .htaccess‏‎ (28 jan 2021 22:49)
  357. Alle mailboxen van een gebruiker‏‎ (9 feb 2021 16:53)
  358. Beperking van de grootte van bijlagen op mobiele apparaten‏‎ (23 feb 2021 09:27)
  359. Exporteer gebruikers in Active Directory Groep‏‎ (26 feb 2021 15:47)
  360. FreeNAS‏‎ (27 feb 2021 21:13)
  361. UniFi/Controller/SSL‏‎ (2 apr 2021 20:46)
  362. Citrix‏‎ (6 apr 2021 08:20)
  363. Citrix Workspace Environment Management (WEM)‏‎ (6 apr 2021 08:56)

(vorige 500 | volgende 500) (20 | 50 | 100 | 250 | 500) bekijken.